| time (UTC) | temp C | wind direction | speed KPH | gust KPH | rain 1hr cm | rain 24hr cm | rain mn cm | humidity % | barometer mb |
| 20260505090332 | 12 | 223 | 3.2 | 9.7 | 0.00 | 0.00 | 0.00 | 85 | 1012.3 |
| 20260505084855 | 12 | 173 | 6.4 | 14.5 | 0.00 | 0.00 | 0.00 | 85 | 1012.2 |
| 20260505083336 | 12 | 226 | 4.8 | 16.1 | 0.00 | 0.00 | 0.00 | 85 | 1012.2 |
| 20260505081841 | 12 | 254 | 4.8 | 9.7 | 0.00 | 0.00 | 0.00 | 84 | 1012.1 |
| 20260505080327 | 13 | 258 | 4.8 | 12.9 | 0.00 | 0.00 | 0.00 | 84 | 1012.1 |
| 20260505074829 | 13 | 227 | 6.4 | 11.3 | 0.00 | 0.00 | 0.00 | 83 | 1012.0 |
| 20260505073326 | 13 | 200 | 1.6 | 8.0 | 0.00 | 0.00 | 0.00 | 84 | 1011.9 |
| 20260505071828 | 13 | 166 | 0.0 | 4.8 | 0.00 | 0.00 | 0.00 | 83 | 1011.7 |
| 20260505070326 | 13 | 166 | 1.6 | 9.7 | 0.00 | 0.00 | 0.00 | 82 | 1011.4 |
| 20260505064828 | 13 | 260 | 4.8 | 14.5 | 0.00 | 0.00 | 0.00 | 82 | 1011.3 |
| 20260505063329 | 13 | 235 | 4.8 | 14.5 | 0.00 | 0.00 | 0.00 | 81 | 1011.1 |
| 20260505061831 | 13 | 222 | 8.0 | 12.9 | 0.00 | 0.00 | 0.00 | 80 | 1010.9 |
| 20260505060337 | 14 | 178 | 6.4 | 14.5 | 0.00 | 0.00 | 0.00 | 80 | 1010.8 |
| 20260505054843 | 14 | 190 | 4.8 | 12.9 | 0.00 | 0.00 | 0.00 | 79 | 1010.8 |
| 20260505053349 | 15 | 224 | 4.8 | 14.5 | 0.00 | 0.00 | 0.00 | 78 | 1010.6 |
| 20260505051827 | 15 | 223 | 6.4 | 12.9 | 0.00 | 0.00 | 0.00 | 76 | 1010.7 |
| 20260505050328 | 16 | 223 | 4.8 | 12.9 | 0.00 | 0.00 | 0.00 | 74 | 1010.5 |
| 20260505040328 | 18 | 259 | 4.8 | 16.1 | 0.00 | 0.00 | 0.00 | 66 | 1009.5 |
| 20260505034823 | 19 | 269 | 4.8 | 17.7 | 0.00 | 0.00 | 0.00 | 64 | 1009.2 |
| 20260505033325 | 20 | 254 | 9.7 | 16.1 | 0.00 | 0.00 | 0.00 | 62 | 1008.9 |
| 20260505031827 | 21 | 262 | 8.0 | 17.7 | 0.00 | 0.00 | 0.00 | 59 | 1008.8 |
| 20260505030328 | 22 | 266 | 9.7 | 17.7 | 0.00 | 0.00 | 0.00 | 56 | 1008.5 |
| 20260505024850 | 23 | 254 | 8.0 | 14.5 | 0.00 | 0.00 | 0.00 | 53 | 1008.6 |
| 20260505023330 | 23 | 260 | 6.4 | 14.5 | 0.00 | 0.00 | 0.00 | 51 | 1008.4 |
| 20260505021833 | 25 | 252 | 8.0 | 14.5 | 0.00 | 0.00 | 0.00 | 50 | 1008.4 |
| 20260505020404 | 26 | 278 | 3.2 | 11.3 | 0.00 | 0.00 | 0.00 | 49 | 1008.3 |
| 20260505014851 | 26 | 251 | 8.0 | 16.1 | 0.00 | 0.00 | 0.00 | 47 | 1008.3 |
| 20260505013328 | 26 | 266 | 6.4 | 14.5 | 0.00 | 0.00 | 0.00 | 45 | 1008.3 |
| 20260505011829 | 27 | 278 | 4.8 | 12.9 | 0.00 | 0.00 | 0.00 | 43 | 1008.3 |
| 20260505010329 | 27 | 248 | 8.0 | 16.1 | 0.00 | 0.00 | 0.00 | 42 | 1008.2 |
| 20260505004851 | 27 | 265 | 4.8 | 12.9 | 0.00 | 0.00 | 0.00 | 42 | 1008.3 |
| 20260505003351 | 27 | 256 | 4.8 | 16.1 | 0.00 | 0.00 | 0.00 | 43 | 1008.4 |
| 20260505001832 | 27 | 248 | 6.4 | 12.9 | 0.00 | 0.00 | 0.00 | 41 | 1008.5 |
| 20260505000333 | 26 | 282 | 6.4 | 11.3 | 0.00 | 0.00 | 0.00 | 40 | 1008.4 |
| 20260504234835 | 27 | 227 | 6.4 | 11.3 | 0.00 | 0.00 | 0.00 | 35 | 1008.3 |
| 20260504233341 | 26 | 300 | 9.7 | 17.7 | 0.00 | 0.00 | 0.00 | 35 | 1008.3 |
| 20260504231849 | 27 | 258 | 8.0 | 17.7 | 0.00 | 0.00 | 0.00 | 34 | 1008.4 |
| 20260504230329 | 27 | 249 | 6.4 | 12.9 | 0.00 | 0.00 | 0.00 | 35 | 1008.6 |
| 20260504224831 | 27 | 264 | 6.4 | 12.9 | 0.00 | 0.00 | 0.00 | 31 | 1008.9 |
| 20260504223332 | 26 | 212 | 6.4 | 14.5 | 0.00 | 0.00 | 0.00 | 34 | 1009.0 |
| 20260504221838 | 26 | 285 | 6.4 | 14.5 | 0.00 | 0.00 | 0.00 | 37 | 1009.0 |
| 20260504220332 | 26 | 356 | 4.8 | 12.9 | 0.00 | 0.00 | 0.00 | 35 | 1009.1 |
| 20260504214838 | 26 | 260 | 8.0 | 14.5 | 0.00 | 0.00 | 0.00 | 35 | 1009.1 |
| 20260504213325 | 25 | 264 | 8.0 | 12.9 | 0.00 | 0.00 | 0.00 | 37 | 1009.2 |
| 20260504211852 | 25 | 278 | 6.4 | 14.5 | 0.00 | 0.00 | 0.00 | 38 | 1009.4 |
| 20260504210352 | 25 | 266 | 8.0 | 12.9 | 0.00 | 0.00 | 0.00 | 39 | 1009.5 |
| 20260504204837 | 25 | 252 | 8.0 | 14.5 | 0.00 | 0.00 | 0.00 | 42 | 1009.7 |
| 20260504203344 | 25 | 250 | 8.0 | 16.1 | 0.00 | 0.00 | 0.00 | 43 | 1009.7 |
| 20260504201850 | 24 | 241 | 4.8 | 12.9 | 0.00 | 0.00 | 0.00 | 48 | 1009.6 |
| 20260504200356 | 24 | 271 | 4.8 | 14.5 | 0.00 | 0.00 | 0.00 | 43 | 1009.8 |
| 20260504194842 | 23 | 262 | 6.4 | 12.9 | 0.00 | 0.00 | 0.00 | 44 | 1009.9 |
| 20260504193330 | 23 | 254 | 8.0 | 16.1 | 0.00 | 0.00 | 0.00 | 44 | 1009.8 |
| 20260504191827 | 23 | 241 | 6.4 | 14.5 | 0.00 | 0.00 | 0.00 | 45 | 1010.0 |
| 20260504190333 | 22 | 272 | 4.8 | 16.1 | 0.00 | 0.00 | 0.00 | 49 | 1010.0 |
| 20260504184837 | 22 | 243 | 9.7 | 12.9 | 0.00 | 0.00 | 0.00 | 49 | 1010.1 |
| 20260504183322 | 22 | 276 | 6.4 | 11.3 | 0.00 | 0.00 | 0.00 | 50 | 1010.1 |
| 20260504181849 | 21 | 274 | 8.0 | 11.3 | 0.00 | 0.00 | 0.00 | 50 | 1010.1 |
| 20260504180350 | 21 | 284 | 4.8 | 9.7 | 0.00 | 0.00 | 0.00 | 51 | 1010.3 |
| 20260504174829 | 20 | 280 | 6.4 | 11.3 | 0.00 | 0.00 | 0.00 | 55 | 1010.2 |
| 20260504173331 | 20 | 266 | 4.8 | 12.9 | 0.00 | 0.00 | 0.00 | 60 | 1010.1 |
| 20260504171832 | 20 | 257 | 4.8 | 11.3 | 0.00 | 0.00 | 0.00 | 60 | 1010.0 |
| 20260504170334 | 18 | 265 | 3.2 | 11.3 | 0.00 | 0.00 | 0.00 | 61 | 1010.0 |
| 20260504160327 | 16 | 227 | 4.8 | 8.0 | 0.00 | 0.00 | 0.00 | 71 | 1009.8 |
| 20260504150339 | 13 | 75 | 1.6 | 4.8 | 0.00 | 0.00 | 0.00 | 81 | 1009.4 |
| 20260504140333 | 12 | 75 | 0.0 | 0.0 | 0.00 | 0.00 | 0.00 | 83 | 1009.0 |
| 20260504130336 | 12 | 75 | 0.0 | 0.0 | 0.00 | 0.00 | 0.00 | 81 | 1008.7 |
| 20260504110332 | 13 | 75 | 1.6 | 3.2 | 0.00 | 0.00 | 0.00 | 76 | 1008.5 |
| 20260504100326 | 14 | 75 | 0.0 | 0.0 | 0.00 | 0.00 | 0.00 | 77 | 1008.3 |